Regional Weather Roundup
Issued by NWS Charleston, SC

Current Version | Previous Version | Graphics & Text | Print | Product List | Glossary On
Versions: 1 2 3 4 5 6 7 8 9 10 11 12 13 14 15 16 17 18 19 20 21 22 23 24 25 26 27 28 29 30 31 32 33 34 35 36 37 38 39 40 41 42 43 44 45 46 47 48 49 50
000
ASUS42 KCHS 230612
RWRCHS

REGIONAL WEATHER ROUNDUP
NATIONAL WEATHER SERVICE CHARLESTON SC
200 AM EDT WED AUG 23 2017

NOTE: "FAIR" INDICATES FEW OR NO CLOUDS BELOW 12,000 FEET WITH NO
SIGNIFICANT WEATHER AND/OR OBSTRUCTIONS TO VISIBILITY.

NOT ALL STATIONS ARE QUALITY CONTROLLED. USE DATA WITH CAUTION...
ESPECIALLY DEWPOINT OBSERVATIONS.

SCZ027-030-031-034>040-042>050-230700-
...SOUTHEAST SOUTH CAROLINA...

CITY           SKY/WX    TMP DP  RH WIND       PRES   REMARKS
N CHARLESTON   CLEAR     77  76  96 SW5       29.97F
6HR MIN TEMP:  76; 6HR MAX TEMP:  81;

WATERFRONT PRK   N/A     81  77  88 VRB2      29.82F
JOHNS ISLAND   FAIR      81  77  89 CALM      29.97F
PINOPOLIS        N/A     79  77  94 SW7       29.91S
MONCKS CORNER  FAIR      75  73  94 SW3       29.97F
SUMMERVILLE    FAIR      73  73 100 CALM      29.98F
BEAUFORT MCAS  CLEAR     79  78  97 SW3       29.98F
6HR MIN TEMP:  79; 6HR MAX TEMP:  82;

BEAUFORT ARPT  FAIR      79  77  94 SW3       29.98S
HILTON HEAD IS CLEAR     79  75  89 SW3       29.99F
WALTERBORO     CLEAR     75  73  94 SW3       29.99F
ALLENDALE      NOT AVBL

...SOUTHERN MIDLANDS AND PEE DEE...

CITY           SKY/WX    TMP DP  RH WIND       PRES   REMARKS
GEORGETOWN     FAIR      73  73 100 CALM      29.98F
KINGSTREE      FAIR      75  73  94 CALM      29.96F
ORANGEBURG     CLEAR     76  74  93 SW5       29.98F
6HR MIN TEMP:  76; 6HR MAX TEMP:  83;

BARNWELL       FAIR      79  77  94 SW5       29.98F
AIKEN          FAIR      73  72  94 SW5       30.02F
MANNING        FAIR      79  70  73 CALM      29.97F
COLUMBIA       CLEAR     78  72  81 SW3       29.96R
6HR MIN TEMP:  78; 6HR MAX TEMP:  88;

SUMTER         CLEAR     78  74  86 SW10      29.94S
6HR MIN TEMP:  78; 6HR MAX TEMP:  85;

FLORENCE       PTCLDY    77  76  96 SW9       29.95F
6HR MIN TEMP:  77; 6HR MAX TEMP:  82;

MYRTLE BEACH   CLEAR     79  75  87 SW7       29.97F
N MYRTLE BEACH CLEAR     80  74  81 SW9       29.96F
6HR MIN TEMP:  80; 6HR MAX TEMP:  83;


$$

GAZ063-065-086>088-099>101-113>116-118-119-134>141-150-230700-
...SOUTHEAST GEORGIA...

CITY           SKY/WX    TMP DP  RH WIND       PRES   REMARKS
SAVANNAH ARPT  CLEAR     77  75  93 SW5       29.99F
6HR MIN TEMP:  76; 6HR MAX TEMP:  82;

HUNTER AAF     CLEAR     77  75  94 CALM      29.96F
FORT STEWART   CLEAR     77  74  90 SW3       29.97F
6HR MIN TEMP:  76; 6HR MAX TEMP:  80;

STATESBORO     CLEAR     77  73  85 CALM      30.00S
SYLVANIA         N/A     76  76  99 CALM      30.00F
CLAXTON        FAIR      76  75  97 CALM      30.00S

...CSRA...CENTRAL AND FAR SOUTHEAST GEORGIA...

CITY           SKY/WX    TMP DP  RH WIND       PRES   REMARKS
THOMSON        CLOUDY    74  73  96 W3        30.03F
AUGUSTA-BUSH   CLEAR     75  73  93 CALM      29.97F
6HR MIN TEMP:  75; 6HR MAX TEMP:  84;

AUGUSTA-DANIEL CLEAR     78  72  81 W3        29.99F
SWAINSBORO     FAIR      75  75 100 CALM      30.00F
VIDALIA        CLEAR     77  75  94 S3        30.00F
EASTMAN        FAIR      76  76 100 CALM      30.03S
HAZLEHURST     FAIR      78  74  86 CALM      29.99S
ALMA           CLEAR     75  73  93 CALM      30.00F
6HR MIN TEMP:  75; 6HR MAX TEMP:  84;

WAYCROSS       CLEAR     77  74  90 CALM      30.01S
JESUP          FAIR      75  72  88 CALM      30.00F
BAXLEY         FAIR      73  73 100 CALM      30.00S
BRUNSWICK      CLEAR     77  73  88 CALM      30.00S
SAINT SIMONS   MOCLDY    83  77  82 SW6       29.99S HX  92
6HR MIN TEMP:  83; 6HR MAX TEMP:  84;


$$

SCZ027-028-034-036>038-045-046-048>050-GAZ119-141-230700-
...LAKE AND SUPPLEMENTAL COASTAL OBSERVATIONS...

STATION/POSITION TIME  TEMP    WIND        PRES    WAVE   SWELL
                       AIR SEA DIR/SP/G            HT/PER HT/PER/DIR
                 (UTC) (F)     (DEG/KT/KT) (MB)    (FT/S) (FT/S/D)
WINYAH BAY       0445   80     240/  5     1015.0
LAKE MURRAY      0520   81     230/  7/ 11 1013.9
ACE BASIN NERRS  0445   80        CALM     1016.0
FORT PULASKI     0548      87  220/  4/  5 1015.7F
SAPELO ISLAND    0500   82     190/  1     1016.0

$$

ANZ835-935-AMZ111-154-330-350-352-354-370-450-454-472-230700-
...C-MAN AND BUOY OBSERVATIONS...

STATION/POSITION TIME  TEMP    WIND        PRES    WAVE   SWELL
                       AIR SEA DIR/SP/G            HT/PER HT/PER/DIR
                 (UTC) (F)     (DEG/KT/KT) (MB)    (FT/S) (FT/S/D)
BUOY 41004       0550   83 84  220/ 12/ 14 1015.0F   5/10   5/130/10
BUOY 41008       0550   84 85  180/ 10/ 12 1015.4R   3/10   3/110/10
FOLLY BEACH CMAN 0500   83     210/ 14/ 17 1016.0F
CAPERS NEARSHORE 0508   81 86  220/ 14/ 19 1015.0F
FRIPP NEARSHORE  0508   84     220/ 12/ 16 1015.3S


STATION/POSITION TIME  TEMP    WIND        PRES    WAVE   SWELL
                       AIR SEA DIR/SP/G            HT/PER HT/PER/DIR
                 (UTC) (F)     (DEG/KT/KT) (MB)    (FT/S) (FT/S/D)
5E ST. MARYS GA  0530      84                N/A     3/11   2/120/11
FRYING PAN BUOY  0550   83 84  220/ 14/ 17 1014.7F   4/ 9   3/120/ 9
BUOY 41025       0550   84 85  230/ 17/ 19 1013.8F   5/ 9   3/140/ 9
CAPE LOOKOUT NC  0500   82     220/ 11/ 15 1014.2F
BUOY 41002       0550   82 84  170/  6/  8 1016.0F   3/ 9   3/110/ 9
BUOY 41010       0550   84 85  160/ 12/ 14 1015.4S   4/10   3/110/10
ST AUGUSTINE FL  0600   82 83  160/ 10/ 10 1015.6F


$$




USA.gov is the U.S. government's official web portal to all federal, state and local government web resources and services.